Time,TemperatureF,DewpointF,PressureIn,WindDirection,WindDirectionDegrees,WindSpeedMPH,WindSpeedGustMPH,Humidity,HourlyPrecipIn,Conditions,Clouds,dailyrainin,SoftwareType,DateUTC
2013-10-05 00:02:00,63.9,27.4,-100.00,North,-999,-999.0,-999.0,25,-99.99,,---,-99.99,VWS V14.01,2013-10-05 07:02:00,
2013-10-05 00:07:00,63.7,27.2,-100.00,North,-999,-999.0,-999.0,25,-99.99,,---,-99.99,VWS V14.01,2013-10-05 07:07:00,
2013-10-05 00:12:00,63.5,27.1,-100.00,North,-999,-999.0,-999.0,25,-99.99,,---,-99.99,VWS V14.01,2013-10-05 07:12:00,
2013-10-05 00:17:00,63.3,26.9,-100.00,North,-999,-999.0,-999.0,25,-99.99,,---,-99.99,VWS V14.01,2013-10-05 07:17:00,
2013-10-05 00:22:00,63.1,26.8,-100.00,North,-999,-999.0,-999.0,25,-99.99,,---,-99.99,VWS V14.01,2013-10-05 07:22:00,
2013-10-05 00:27:00,63.1,26.8,-100.00,North,-999,-999.0,-999.0,25,-99.99,,---,-99.99,VWS V14.01,2013-10-05 07:27:00,
2013-10-05 00:32:00,63.1,26.8,-100.00,North,-999,-999.0,-999.0,25,-99.99,,---,-99.99,VWS V14.01,2013-10-05 07:32:00,
2013-10-05 00:37:00,63.1,26.8,-100.00,North,-999,-999.0,-999.0,25,-99.99,,---,-99.99,VWS V14.01,2013-10-05 07:37:00,
2013-10-05 00:42:00,63.0,26.6,-100.00,North,-999,-999.0,-999.0,25,-99.99,,---,-99.99,VWS V14.01,2013-10-05 07:42:00,
2013-10-05 00:47:00,63.1,26.8,-100.00,North,-999,-999.0,-999.0,25,-99.99,,---,-99.99,VWS V14.01,2013-10-05 07:47:00,
2013-10-05 00:52:00,63.1,26.8,-100.00,North,-999,-999.0,-999.0,25,-99.99,,---,-99.99,VWS V14.01,2013-10-05 07:52:00,
2013-10-05 00:57:00,62.6,26.3,-100.00,North,-999,-999.0,-999.0,25,-99.99,,---,-99.99,VWS V14.01,2013-10-05 07:57:00,
2013-10-05 01:02:00,62.4,27.1,-100.00,North,-999,-999.0,-999.0,26,-99.99,,---,-99.99,VWS V14.01,2013-10-05 08:02:00,
2013-10-05 01:11:00,62.1,26.8,-100.00,North,-999,-999.0,-999.0,26,-99.99,,---,-99.99,VWS V14.01,2013-10-05 08:11:00,
2013-10-05 01:16:00,61.9,26.6,-100.00,North,-999,-999.0,-999.0,26,-99.99,,---,-99.99,VWS V14.01,2013-10-05 08:16:00,
2013-10-05 01:21:00,61.9,26.6,-100.00,North,-999,-999.0,-999.0,26,-99.99,,---,-99.99,VWS V14.01,2013-10-05 08:21:00,
2013-10-05 01:26:00,61.7,26.5,-100.00,North,-999,-999.0,-999.0,26,-99.99,,---,-99.99,VWS V14.01,2013-10-05 08:26:00,
2013-10-05 01:31:00,61.5,26.3,-100.00,North,-999,-999.0,-999.0,26,-99.99,,---,-99.99,VWS V14.01,2013-10-05 08:31:00,
2013-10-05 01:36:00,61.5,26.3,-100.00,North,-999,-999.0,-999.0,26,-99.99,,---,-99.99,VWS V14.01,2013-10-05 08:36:00,
2013-10-05 01:41:00,61.5,26.3,-100.00,North,-999,-999.0,-999.0,26,-99.99,,---,-99.99,VWS V14.01,2013-10-05 08:41:00,
2013-10-05 01:46:00,61.5,26.3,-100.00,North,-999,-999.0,-999.0,26,-99.99,,---,-99.99,VWS V14.01,2013-10-05 08:46:00,
2013-10-05 01:51:00,61.5,26.3,-100.00,North,-999,-999.0,-999.0,26,-99.99,,---,-99.99,VWS V14.01,2013-10-05 08:51:00,
2013-10-05 01:56:00,61.5,26.3,-100.00,North,-999,-999.0,-999.0,26,-99.99,,---,-99.99,VWS V14.01,2013-10-05 08:56:00,
2013-10-05 02:01:00,61.7,26.5,-100.00,North,-999,-999.0,-999.0,26,-99.99,,---,-99.99,VWS V14.01,2013-10-05 09:01:00,
2013-10-05 02:11:00,61.7,26.5,-100.00,North,-999,-999.0,-999.0,26,-99.99,,---,-99.99,VWS V14.01,2013-10-05 09:11:00,
2013-10-05 02:16:00,61.5,26.3,-100.00,North,-999,-999.0,-999.0,26,-99.99,,---,-99.99,VWS V14.01,2013-10-05 09:16:00,
2013-10-05 02:21:00,61.5,26.3,-100.00,North,-999,-999.0,-999.0,26,-99.99,,---,-99.99,VWS V14.01,2013-10-05 09:21:00,
2013-10-05 02:26:00,61.3,26.2,-100.00,North,-999,-999.0,-999.0,26,-99.99,,---,-99.99,VWS V14.01,2013-10-05 09:26:00,
2013-10-05 02:31:00,61.2,26.0,-100.00,North,-999,-999.0,-999.0,26,-99.99,,---,-99.99,VWS V14.01,2013-10-05 09:31:00,
2013-10-05 02:36:00,61.2,26.0,-100.00,North,-999,-999.0,-999.0,26,-99.99,,---,-99.99,VWS V14.01,2013-10-05 09:36:00,
2013-10-05 02:41:00,61.0,25.9,-100.00,North,-999,-999.0,-999.0,26,-99.99,,---,-99.99,VWS V14.01,2013-10-05 09:41:00,
2013-10-05 02:46:00,61.0,25.9,-100.00,North,-999,-999.0,-999.0,26,-99.99,,---,-99.99,VWS V14.01,2013-10-05 09:46:00,
2013-10-05 02:51:00,61.0,25.9,-100.00,North,-999,-999.0,-999.0,26,-99.99,,---,-99.99,VWS V14.01,2013-10-05 09:51:00,
2013-10-05 02:56:00,60.8,25.7,-100.00,North,-999,-999.0,-999.0,26,-99.99,,---,-99.99,VWS V14.01,2013-10-05 09:56:00,
2013-10-05 03:01:00,60.8,25.7,-100.00,North,-999,-999.0,-999.0,26,-99.99,,---,-99.99,VWS V14.01,2013-10-05 10:01:00,
2013-10-05 03:11:00,60.3,25.3,-100.00,North,-999,-999.0,-999.0,26,-99.99,,---,-99.99,VWS V14.01,2013-10-05 10:11:00,
2013-10-05 03:16:00,60.3,25.3,-100.00,North,-999,-999.0,-999.0,26,-99.99,,---,-99.99,VWS V14.01,2013-10-05 10:16:00,
2013-10-05 03:21:00,60.3,25.3,-100.00,North,-999,-999.0,-999.0,26,-99.99,,---,-99.99,VWS V14.01,2013-10-05 10:21:00,
2013-10-05 03:26:00,60.1,25.1,-100.00,North,-999,-999.0,-999.0,26,-99.99,,---,-99.99,VWS V14.01,2013-10-05 10:26:00,
2013-10-05 03:31:00,60.1,25.1,-100.00,North,-999,-999.0,-999.0,26,-99.99,,---,-99.99,VWS V14.01,2013-10-05 10:31:00,
2013-10-05 03:36:00,60.1,25.1,-100.00,North,-999,-999.0,-999.0,26,-99.99,,---,-99.99,VWS V14.01,2013-10-05 10:36:00,
2013-10-05 03:41:00,60.1,25.1,-100.00,North,-999,-999.0,-999.0,26,-99.99,,---,-99.99,VWS V14.01,2013-10-05 10:41:00,
2013-10-05 03:46:00,59.9,25.0,-100.00,North,-999,-999.0,-999.0,26,-99.99,,---,-99.99,VWS V14.01,2013-10-05 10:46:00,
2013-10-05 03:51:00,59.9,25.0,-100.00,North,-999,-999.0,-999.0,26,-99.99,,---,-99.99,VWS V14.01,2013-10-05 10:51:00,
2013-10-05 03:56:00,59.9,25.0,-100.00,North,-999,-999.0,-999.0,26,-99.99,,---,-99.99,VWS V14.01,2013-10-05 10:56:00,
2013-10-05 04:01:00,59.7,24.8,-100.00,North,-999,-999.0,-999.0,26,-99.99,,---,-99.99,VWS V14.01,2013-10-05 11:01:00,
2013-10-05 04:06:00,59.7,24.8,-100.00,North,-999,-999.0,-999.0,26,-99.99,,---,-99.99,VWS V14.01,2013-10-05 11:06:00,
2013-10-05 04:12:00,59.5,24.6,-100.00,North,-999,-999.0,-999.0,26,-99.99,,---,-99.99,VWS V14.01,2013-10-05 11:12:00,
2013-10-05 04:17:00,59.4,24.5,-100.00,North,-999,-999.0,-999.0,26,-99.99,,---,-99.99,VWS V14.01,2013-10-05 11:17:00,
2013-10-05 04:22:00,59.4,24.5,-100.00,North,-999,-999.0,-999.0,26,-99.99,,---,-99.99,VWS V14.01,2013-10-05 11:22:00,
2013-10-05 04:27:00,59.2,24.3,-100.00,North,-999,-999.0,-999.0,26,-99.99,,---,-99.99,VWS V14.01,2013-10-05 11:27:00,
2013-10-05 04:32:00,59.0,24.2,-100.00,North,-999,-999.0,-999.0,26,-99.99,,---,-99.99,VWS V14.01,2013-10-05 11:32:00,
2013-10-05 04:37:00,59.0,24.2,-100.00,North,-999,-999.0,-999.0,26,-99.99,,---,-99.99,VWS V14.01,2013-10-05 11:37:00,
2013-10-05 04:42:00,59.0,24.2,-100.00,North,-999,-999.0,-999.0,26,-99.99,,---,-99.99,VWS V14.01,2013-10-05 11:42:00,
2013-10-05 04:47:00,58.8,24.9,-100.00,North,-999,-999.0,-999.0,27,-99.99,,---,-99.99,VWS V14.01,2013-10-05 11:47:00,
2013-10-05 04:52:00,58.8,24.9,-100.00,North,-999,-999.0,-999.0,27,-99.99,,---,-99.99,VWS V14.01,2013-10-05 11:52:00,
2013-10-05 04:57:00,58.6,24.8,-100.00,North,-999,-999.0,-999.0,27,-99.99,,---,-99.99,VWS V14.01,2013-10-05 11:57:00,
2013-10-05 05:02:00,58.6,24.8,-100.00,North,-999,-999.0,-999.0,27,-99.99,,---,-99.99,VWS V14.01,2013-10-05 12:02:00,
2013-10-05 05:07:00,58.6,24.8,-100.00,North,-999,-999.0,-999.0,27,-99.99,,---,-99.99,VWS V14.01,2013-10-05 12:07:00,
2013-10-05 05:12:00,58.5,24.6,-100.00,North,-999,-999.0,-999.0,27,-99.99,,---,-99.99,VWS V14.01,2013-10-05 12:12:00,
2013-10-05 05:17:00,58.5,24.6,-100.00,North,-999,-999.0,-999.0,27,-99.99,,---,-99.99,VWS V14.01,2013-10-05 12:17:00,
2013-10-05 05:22:00,58.1,24.3,-100.00,North,-999,-999.0,-999.0,27,-99.99,,---,-99.99,VWS V14.01,2013-10-05 12:22:00,
2013-10-05 05:27:00,58.1,24.3,-100.00,North,-999,-999.0,-999.0,27,-99.99,,---,-99.99,VWS V14.01,2013-10-05 12:27:00,
2013-10-05 05:32:00,58.3,24.5,-100.00,North,-999,-999.0,-999.0,27,-99.99,,---,-99.99,VWS V14.01,2013-10-05 12:32:00,
2013-10-05 05:37:00,58.1,24.3,-100.00,North,-999,-999.0,-999.0,27,-99.99,,---,-99.99,VWS V14.01,2013-10-05 12:37:00,
2013-10-05 05:42:00,58.1,24.3,-100.00,North,-999,-999.0,-999.0,27,-99.99,,---,-99.99,VWS V14.01,2013-10-05 12:42:00,
2013-10-05 05:47:00,57.9,24.2,-100.00,North,-999,-999.0,-999.0,27,-99.99,,---,-99.99,VWS V14.01,2013-10-05 12:47:00,
2013-10-05 05:52:00,57.9,24.2,-100.00,North,-999,-999.0,-999.0,27,-99.99,,---,-99.99,VWS V14.01,2013-10-05 12:52:00,
2013-10-05 05:57:00,57.9,24.2,-100.00,North,-999,-999.0,-999.0,27,-99.99,,---,-99.99,VWS V14.01,2013-10-05 12:57:00,
2013-10-05 06:02:00,57.9,24.2,-100.00,North,-999,-999.0,-999.0,27,-99.99,,---,-99.99,VWS V14.01,2013-10-05 13:02:00,
2013-10-05 06:07:00,57.9,24.2,-100.00,North,-999,-999.0,-999.0,27,-99.99,,---,-99.99,VWS V14.01,2013-10-05 13:07:00,
2013-10-05 06:12:00,57.9,24.2,-100.00,North,-999,-999.0,-999.0,27,-99.99,,---,-99.99,VWS V14.01,2013-10-05 13:12:00,
2013-10-05 06:17:00,57.9,24.2,-100.00,North,-999,-999.0,-999.0,27,-99.99,,---,-99.99,VWS V14.01,2013-10-05 13:17:00,
2013-10-05 06:22:00,57.7,24.0,-100.00,North,-999,-999.0,-999.0,27,-99.99,,---,-99.99,VWS V14.01,2013-10-05 13:22:00,
2013-10-05 06:27:00,57.7,24.0,-100.00,North,-999,-999.0,-999.0,27,-99.99,,---,-99.99,VWS V14.01,2013-10-05 13:27:00,
2013-10-05 06:32:00,57.6,23.9,-100.00,North,-999,-999.0,-999.0,27,-99.99,,---,-99.99,VWS V14.01,2013-10-05 13:32:00,
2013-10-05 06:37:00,57.6,23.9,-100.00,North,-999,-999.0,-999.0,27,-99.99,,---,-99.99,VWS V14.01,2013-10-05 13:37:00,
2013-10-05 06:42:00,57.4,23.7,-100.00,North,-999,-999.0,-999.0,27,-99.99,,---,-99.99,VWS V14.01,2013-10-05 13:42:00,
2013-10-05 06:47:00,57.2,23.5,-100.00,North,-999,-999.0,-999.0,27,-99.99,,---,-99.99,VWS V14.01,2013-10-05 13:47:00,
2013-10-05 06:52:00,57.2,23.5,-100.00,North,-999,-999.0,-999.0,27,-99.99,,---,-99.99,VWS V14.01,2013-10-05 13:52:00,
2013-10-05 06:57:00,57.0,23.4,-100.00,North,-999,-999.0,-999.0,27,-99.99,,---,-99.99,VWS V14.01,2013-10-05 13:57:00,
2013-10-05 07:02:00,56.8,24.1,-100.00,North,-999,-999.0,-999.0,28,-99.99,,---,-99.99,VWS V14.01,2013-10-05 14:02:00,
2013-10-05 07:07:00,56.8,24.1,-100.00,North,-999,-999.0,-999.0,28,-99.99,,---,-99.99,VWS V14.01,2013-10-05 14:07:00,
2013-10-05 07:12:00,56.7,24.0,-100.00,North,-999,-999.0,-999.0,28,-99.99,,---,-99.99,VWS V14.01,2013-10-05 14:12:00,
2013-10-05 07:17:00,56.7,24.0,-100.00,North,-999,-999.0,-999.0,28,-99.99,,---,-99.99,VWS V14.01,2013-10-05 14:17:00,
2013-10-05 07:22:00,56.5,23.8,-100.00,North,-999,-999.0,-999.0,28,-99.99,,---,-99.99,VWS V14.01,2013-10-05 14:22:00,
2013-10-05 07:27:00,56.3,23.6,-100.00,North,-999,-999.0,-999.0,28,-99.99,,---,-99.99,VWS V14.01,2013-10-05 14:27:00,
2013-10-05 07:32:00,56.3,23.6,-100.00,North,-999,-999.0,-999.0,28,-99.99,,---,-99.99,VWS V14.01,2013-10-05 14:32:00,
2013-10-05 07:37:00,56.1,23.5,-100.00,North,-999,-999.0,-999.0,28,-99.99,,---,-99.99,VWS V14.01,2013-10-05 14:37:00,
2013-10-05 07:42:00,56.1,23.5,-100.00,North,-999,-999.0,-999.0,28,-99.99,,---,-99.99,VWS V14.01,2013-10-05 14:42:00,
2013-10-05 07:47:00,56.1,23.5,-100.00,North,-999,-999.0,-999.0,28,-99.99,,---,-99.99,VWS V14.01,2013-10-05 14:47:00,
2013-10-05 07:52:00,56.1,23.5,-100.00,North,-999,-999.0,-999.0,28,-99.99,,---,-99.99,VWS V14.01,2013-10-05 14:52:00,
2013-10-05 07:57:00,56.3,23.6,-100.00,North,-999,-999.0,-999.0,28,-99.99,,---,-99.99,VWS V14.01,2013-10-05 14:57:00,
2013-10-05 08:02:00,56.3,23.6,-100.00,North,-999,-999.0,-999.0,28,-99.99,,---,-99.99,VWS V14.01,2013-10-05 15:02:00,
2013-10-05 08:07:00,56.5,23.8,-100.00,North,-999,-999.0,-999.0,28,-99.99,,---,-99.99,VWS V14.01,2013-10-05 15:07:00,
2013-10-05 08:12:00,56.7,24.8,-100.00,North,-999,-999.0,-999.0,29,-99.99,,---,-99.99,VWS V14.01,2013-10-05 15:12:00,
2013-10-05 08:17:00,57.0,25.1,-100.00,North,-999,-999.0,-999.0,29,-99.99,,---,-99.99,VWS V14.01,2013-10-05 15:17:00,
2013-10-05 08:22:00,57.7,24.9,-100.00,North,-999,-999.0,-999.0,28,-99.99,,---,-99.99,VWS V14.01,2013-10-05 15:22:00,
2013-10-05 08:27:00,58.3,26.2,-100.00,North,-999,-999.0,-999.0,29,-99.99,,---,-99.99,VWS V14.01,2013-10-05 15:27:00,
2013-10-05 08:32:00,58.8,26.6,-100.00,North,-999,-999.0,-999.0,29,-99.99,,---,-99.99,VWS V14.01,2013-10-05 15:32:00,
2013-10-05 08:37:00,59.5,26.4,-100.00,North,-999,-999.0,-999.0,28,-99.99,,---,-99.99,VWS V14.01,2013-10-05 15:37:00,
2013-10-05 08:42:00,60.1,26.9,-100.00,North,-999,-999.0,-999.0,28,-99.99,,---,-99.99,VWS V14.01,2013-10-05 15:42:00,
2013-10-05 08:47:00,60.6,27.4,-100.00,North,-999,-999.0,-999.0,28,-99.99,,---,-99.99,VWS V14.01,2013-10-05 15:47:00,
2013-10-05 08:52:00,61.0,27.7,-100.00,North,-999,-999.0,-999.0,28,-99.99,,---,-99.99,VWS V14.01,2013-10-05 15:52:00,
2013-10-05 08:57:00,61.7,28.3,-100.00,North,-999,-999.0,-999.0,28,-99.99,,---,-99.99,VWS V14.01,2013-10-05 15:57:00,
2013-10-05 09:02:00,61.9,28.4,-100.00,North,-999,-999.0,-999.0,28,-99.99,,---,-99.99,VWS V14.01,2013-10-05 16:02:00,
2013-10-05 09:11:00,63.1,28.6,-100.00,North,-999,-999.0,-999.0,27,-99.99,,---,-99.99,VWS V14.01,2013-10-05 16:11:00,
2013-10-05 09:16:00,63.7,29.1,-100.00,North,-999,-999.0,-999.0,27,-99.99,,---,-99.99,VWS V14.01,2013-10-05 16:16:00,
2013-10-05 09:21:00,64.2,29.6,-100.00,North,-999,-999.0,-999.0,27,-99.99,,---,-99.99,VWS V14.01,2013-10-05 16:21:00,
2013-10-05 09:26:00,64.8,30.0,-100.00,North,-999,-999.0,-999.0,27,-99.99,,---,-99.99,VWS V14.01,2013-10-05 16:26:00,
2013-10-05 09:31:00,65.3,30.5,-100.00,North,-999,-999.0,-999.0,27,-99.99,,---,-99.99,VWS V14.01,2013-10-05 16:31:00,
2013-10-05 09:36:00,65.7,30.8,-100.00,North,-999,-999.0,-999.0,27,-99.99,,---,-99.99,VWS V14.01,2013-10-05 16:36:00,
2013-10-05 09:41:00,65.8,31.0,-100.00,North,-999,-999.0,-999.0,27,-99.99,,---,-99.99,VWS V14.01,2013-10-05 16:41:00,
2013-10-05 09:46:00,66.2,31.3,-100.00,North,-999,-999.0,-999.0,27,-99.99,,---,-99.99,VWS V14.01,2013-10-05 16:46:00,
2013-10-05 09:51:00,66.9,31.9,-100.00,North,-999,-999.0,-999.0,27,-99.99,,---,-99.99,VWS V14.01,2013-10-05 16:51:00,
2013-10-05 09:56:00,67.5,32.3,-100.00,North,-999,-999.0,-999.0,27,-99.99,,---,-99.99,VWS V14.01,2013-10-05 16:56:00,
2013-10-05 10:01:00,67.8,32.7,-100.00,North,-999,-999.0,-999.0,27,-99.99,,---,-99.99,VWS V14.01,2013-10-05 17:01:00,
2013-10-05 10:06:00,68.4,32.2,-100.00,North,-999,-999.0,-999.0,26,-99.99,,---,-99.99,VWS V14.01,2013-10-05 17:06:00,
2013-10-05 10:11:00,68.5,32.3,-100.00,North,-999,-999.0,-999.0,26,-99.99,,---,-99.99,VWS V14.01,2013-10-05 17:11:00,
2013-10-05 10:16:00,69.3,32.9,-100.00,North,-999,-999.0,-999.0,26,-99.99,,---,-99.99,VWS V14.01,2013-10-05 17:16:00,
2013-10-05 10:21:00,69.8,33.4,-100.00,North,-999,-999.0,-999.0,26,-99.99,,---,-99.99,VWS V14.01,2013-10-05 17:21:00,
2013-10-05 10:26:00,70.0,33.5,-100.00,North,-999,-999.0,-999.0,26,-99.99,,---,-99.99,VWS V14.01,2013-10-05 17:26:00,
2013-10-05 10:31:00,70.7,34.2,-100.00,North,-999,-999.0,-999.0,26,-99.99,,---,-99.99,VWS V14.01,2013-10-05 17:31:00,
2013-10-05 10:36:00,71.1,34.5,-100.00,North,-999,-999.0,-999.0,26,-99.99,,---,-99.99,VWS V14.01,2013-10-05 17:36:00,
2013-10-05 10:41:00,71.6,34.0,-100.00,North,-999,-999.0,-999.0,25,-99.99,,---,-99.99,VWS V14.01,2013-10-05 17:41:00,
2013-10-05 10:46:00,71.8,34.1,-100.00,North,-999,-999.0,-999.0,25,-99.99,,---,-99.99,VWS V14.01,2013-10-05 17:46:00,
2013-10-05 10:51:00,72.1,34.4,-100.00,North,-999,-999.0,-999.0,25,-99.99,,---,-99.99,VWS V14.01,2013-10-05 17:51:00,
2013-10-05 10:56:00,72.3,34.6,-100.00,North,-999,-999.0,-999.0,25,-99.99,,---,-99.99,VWS V14.01,2013-10-05 17:56:00,
2013-10-05 11:01:00,72.9,35.0,-100.00,North,-999,-999.0,-999.0,25,-99.99,,---,-99.99,VWS V14.01,2013-10-05 18:01:00,
2013-10-05 11:06:00,73.6,34.6,-100.00,North,-999,-999.0,-999.0,24,-99.99,,---,-99.99,VWS V14.01,2013-10-05 18:06:00,
2013-10-05 11:11:00,73.8,34.8,-100.00,North,-999,-999.0,-999.0,24,-99.99,,---,-99.99,VWS V14.01,2013-10-05 18:11:00,
2013-10-05 11:16:00,74.5,35.4,-100.00,North,-999,-999.0,-999.0,24,-99.99,,---,-99.99,VWS V14.01,2013-10-05 18:16:00,
2013-10-05 11:21:00,75.0,35.8,-100.00,North,-999,-999.0,-999.0,24,-99.99,,---,-99.99,VWS V14.01,2013-10-05 18:21:00,
2013-10-05 11:26:00,75.6,36.3,-100.00,North,-999,-999.0,-999.0,24,-99.99,,---,-99.99,VWS V14.01,2013-10-05 18:26:00,
2013-10-05 11:31:00,76.1,36.7,-100.00,North,-999,-999.0,-999.0,24,-99.99,,---,-99.99,VWS V14.01,2013-10-05 18:31:00,
2013-10-05 11:36:00,76.1,36.7,-100.00,North,-999,-999.0,-999.0,24,-99.99,,---,-99.99,VWS V14.01,2013-10-05 18:36:00,
2013-10-05 11:41:00,76.1,35.7,-100.00,North,-999,-999.0,-999.0,23,-99.99,,---,-99.99,VWS V14.01,2013-10-05 18:41:00,
2013-10-05 11:47:00,76.3,35.8,-100.00,North,-999,-999.0,-999.0,23,-99.99,,---,-99.99,VWS V14.01,2013-10-05 18:47:00,
2013-10-05 11:52:00,76.3,35.8,-100.00,North,-999,-999.0,-999.0,23,-99.99,,---,-99.99,VWS V14.01,2013-10-05 18:52:00,
2013-10-05 11:57:00,76.3,35.8,-100.00,North,-999,-999.0,-999.0,23,-99.99,,---,-99.99,VWS V14.01,2013-10-05 18:57:00,
2013-10-05 12:02:00,76.5,36.0,-100.00,North,-999,-999.0,-999.0,23,-99.99,,---,-99.99,VWS V14.01,2013-10-05 19:02:00,
2013-10-05 12:07:00,77.4,36.7,-100.00,North,-999,-999.0,-999.0,23,-99.99,,---,-99.99,VWS V14.01,2013-10-05 19:07:00,
2013-10-05 12:12:00,78.1,37.3,-100.00,North,-999,-999.0,-999.0,23,-99.99,,---,-99.99,VWS V14.01,2013-10-05 19:12:00,
2013-10-05 12:17:00,78.1,37.3,-100.00,North,-999,-999.0,-999.0,23,-99.99,,---,-99.99,VWS V14.01,2013-10-05 19:17:00,
2013-10-05 12:22:00,78.3,37.5,-100.00,North,-999,-999.0,-999.0,23,-99.99,,---,-99.99,VWS V14.01,2013-10-05 19:22:00,
2013-10-05 12:27:00,78.4,36.5,-100.00,North,-999,-999.0,-999.0,22,-99.99,,---,-99.99,VWS V14.01,2013-10-05 19:27:00,
2013-10-05 12:32:00,78.4,36.5,-100.00,North,-999,-999.0,-999.0,22,-99.99,,---,-99.99,VWS V14.01,2013-10-05 19:32:00,
2013-10-05 12:37:00,78.8,36.8,-100.00,North,-999,-999.0,-999.0,22,-99.99,,---,-99.99,VWS V14.01,2013-10-05 19:37:00,
2013-10-05 12:42:00,79.3,37.2,-100.00,North,-999,-999.0,-999.0,22,-99.99,,---,-99.99,VWS V14.01,2013-10-05 19:42:00,
2013-10-05 12:47:00,79.5,37.4,-100.00,North,-999,-999.0,-999.0,22,-99.99,,---,-99.99,VWS V14.01,2013-10-05 19:47:00,
2013-10-05 12:52:00,80.1,37.8,-100.00,North,-999,-999.0,-999.0,22,-99.99,,---,-99.99,VWS V14.01,2013-10-05 19:52:00,
2013-10-05 12:57:00,80.6,38.3,-100.00,North,-999,-999.0,-999.0,22,-99.99,,---,-99.99,VWS V14.01,2013-10-05 19:57:00,
2013-10-05 13:02:00,80.6,38.3,-100.00,North,-999,-999.0,-999.0,22,-99.99,,---,-99.99,VWS V14.01,2013-10-05 20:02:00,
2013-10-05 13:07:00,80.8,38.4,-100.00,North,-999,-999.0,-999.0,22,-99.99,,---,-99.99,VWS V14.01,2013-10-05 20:07:00,
2013-10-05 13:12:00,80.8,37.2,-100.00,North,-999,-999.0,-999.0,21,-99.99,,---,-99.99,VWS V14.01,2013-10-05 20:12:00,
2013-10-05 13:17:00,81.0,38.6,-100.00,North,-999,-999.0,-999.0,22,-99.99,,---,-99.99,VWS V14.01,2013-10-05 20:17:00,
2013-10-05 13:22:00,81.0,37.4,-100.00,North,-999,-999.0,-999.0,21,-99.99,,---,-99.99,VWS V14.01,2013-10-05 20:22:00,
2013-10-05 13:27:00,81.1,37.5,-100.00,North,-999,-999.0,-999.0,21,-99.99,,---,-99.99,VWS V14.01,2013-10-05 20:27:00,
2013-10-05 13:32:00,81.5,37.8,-100.00,North,-999,-999.0,-999.0,21,-99.99,,---,-99.99,VWS V14.01,2013-10-05 20:32:00,
2013-10-05 13:37:00,81.7,38.0,-100.00,North,-999,-999.0,-999.0,21,-99.99,,---,-99.99,VWS V14.01,2013-10-05 20:37:00,
2013-10-05 13:42:00,81.9,38.1,-100.00,North,-999,-999.0,-999.0,21,-99.99,,---,-99.99,VWS V14.01,2013-10-05 20:42:00,
2013-10-05 13:47:00,81.9,38.1,-100.00,North,-999,-999.0,-999.0,21,-99.99,,---,-99.99,VWS V14.01,2013-10-05 20:47:00,
2013-10-05 13:52:00,81.9,38.1,-100.00,North,-999,-999.0,-999.0,21,-99.99,,---,-99.99,VWS V14.01,2013-10-05 20:52:00,
2013-10-05 13:57:00,81.9,38.1,-100.00,North,-999,-999.0,-999.0,21,-99.99,,---,-99.99,VWS V14.01,2013-10-05 20:57:00,
2013-10-05 14:02:00,81.9,38.1,-100.00,North,-999,-999.0,-999.0,21,-99.99,,---,-99.99,VWS V14.01,2013-10-05 21:02:00,
2013-10-05 14:07:00,81.9,38.1,-100.00,North,-999,-999.0,-999.0,21,-99.99,,---,-99.99,VWS V14.01,2013-10-05 21:07:00,
2013-10-05 14:12:00,81.9,38.1,-100.00,North,-999,-999.0,-999.0,21,-99.99,,---,-99.99,VWS V14.01,2013-10-05 21:12:00,
2013-10-05 14:17:00,81.9,38.1,-100.00,North,-999,-999.0,-999.0,21,-99.99,,---,-99.99,VWS V14.01,2013-10-05 21:17:00,
2013-10-05 14:22:00,82.0,38.3,-100.00,North,-999,-999.0,-999.0,21,-99.99,,---,-99.99,VWS V14.01,2013-10-05 21:22:00,
2013-10-05 14:27:00,81.9,38.1,-100.00,North,-999,-999.0,-999.0,21,-99.99,,---,-99.99,VWS V14.01,2013-10-05 21:27:00,
2013-10-05 14:32:00,82.0,38.3,-100.00,North,-999,-999.0,-999.0,21,-99.99,,---,-99.99,VWS V14.01,2013-10-05 21:32:00,
2013-10-05 14:37:00,82.0,38.3,-100.00,North,-999,-999.0,-999.0,21,-99.99,,---,-99.99,VWS V14.01,2013-10-05 21:37:00,
2013-10-05 14:42:00,82.0,37.0,-100.00,North,-999,-999.0,-999.0,20,-99.99,,---,-99.99,VWS V14.01,2013-10-05 21:42:00,
2013-10-05 14:47:00,82.2,37.2,-100.00,North,-999,-999.0,-999.0,20,-99.99,,---,-99.99,VWS V14.01,2013-10-05 21:47:00,
2013-10-05 14:52:00,82.4,37.3,-100.00,North,-999,-999.0,-999.0,20,-99.99,,---,-99.99,VWS V14.01,2013-10-05 21:52:00,
2013-10-05 14:57:00,82.4,37.3,-100.00,North,-999,-999.0,-999.0,20,-99.99,,---,-99.99,VWS V14.01,2013-10-05 21:57:00,
2013-10-05 15:02:00,82.4,37.3,-100.00,North,-999,-999.0,-999.0,20,-99.99,,---,-99.99,VWS V14.01,2013-10-05 22:02:00,
2013-10-05 15:11:00,82.4,37.3,-100.00,North,-999,-999.0,-999.0,20,-99.99,,---,-99.99,VWS V14.01,2013-10-05 22:11:00,
2013-10-05 15:16:00,82.4,37.3,-100.00,North,-999,-999.0,-999.0,20,-99.99,,---,-99.99,VWS V14.01,2013-10-05 22:16:00,
2013-10-05 15:21:00,82.4,37.3,-100.00,North,-999,-999.0,-999.0,20,-99.99,,---,-99.99,VWS V14.01,2013-10-05 22:21:00,
2013-10-05 15:26:00,82.4,37.3,-100.00,North,-999,-999.0,-999.0,20,-99.99,,---,-99.99,VWS V14.01,2013-10-05 22:26:00,
2013-10-05 15:31:00,82.4,37.3,-100.00,North,-999,-999.0,-999.0,20,-99.99,,---,-99.99,VWS V14.01,2013-10-05 22:31:00,
2013-10-05 15:36:00,82.4,37.3,-100.00,North,-999,-999.0,-999.0,20,-99.99,,---,-99.99,VWS V14.01,2013-10-05 22:36:00,
2013-10-05 15:41:00,82.2,37.2,-100.00,North,-999,-999.0,-999.0,20,-99.99,,---,-99.99,VWS V14.01,2013-10-05 22:41:00,
2013-10-05 15:46:00,82.2,37.2,-100.00,North,-999,-999.0,-999.0,20,-99.99,,---,-99.99,VWS V14.01,2013-10-05 22:46:00,
2013-10-05 15:51:00,82.2,37.2,-100.00,North,-999,-999.0,-999.0,20,-99.99,,---,-99.99,VWS V14.01,2013-10-05 22:51:00,
2013-10-05 15:56:00,82.2,37.2,-100.00,North,-999,-999.0,-999.0,20,-99.99,,---,-99.99,VWS V14.01,2013-10-05 22:56:00,
2013-10-05 16:01:00,82.2,37.2,-100.00,North,-999,-999.0,-999.0,20,-99.99,,---,-99.99,VWS V14.01,2013-10-05 23:01:00,
2013-10-05 16:06:00,82.2,37.2,-100.00,North,-999,-999.0,-999.0,20,-99.99,,---,-99.99,VWS V14.01,2013-10-05 23:06:00,
2013-10-05 16:11:00,82.0,37.0,-100.00,North,-999,-999.0,-999.0,20,-99.99,,---,-99.99,VWS V14.01,2013-10-05 23:11:00,
2013-10-05 16:16:00,82.0,37.0,-100.00,North,-999,-999.0,-999.0,20,-99.99,,---,-99.99,VWS V14.01,2013-10-05 23:16:00,
2013-10-05 16:21:00,82.0,37.0,-100.00,North,-999,-999.0,-999.0,20,-99.99,,---,-99.99,VWS V14.01,2013-10-05 23:21:00,
2013-10-05 16:26:00,82.0,37.0,-100.00,North,-999,-999.0,-999.0,20,-99.99,,---,-99.99,VWS V14.01,2013-10-05 23:26:00,
2013-10-05 16:31:00,82.0,37.0,-100.00,North,-999,-999.0,-999.0,20,-99.99,,---,-99.99,VWS V14.01,2013-10-05 23:31:00,
2013-10-05 16:36:00,82.0,37.0,-100.00,North,-999,-999.0,-999.0,20,-99.99,,---,-99.99,VWS V14.01,2013-10-05 23:36:00,
2013-10-05 16:41:00,82.0,37.0,-100.00,North,-999,-999.0,-999.0,20,-99.99,,---,-99.99,VWS V14.01,2013-10-05 23:41:00,
2013-10-05 16:46:00,82.0,37.0,-100.00,North,-999,-999.0,-999.0,20,-99.99,,---,-99.99,VWS V14.01,2013-10-05 23:46:00,
2013-10-05 16:51:00,81.9,36.9,-100.00,North,-999,-999.0,-999.0,20,-99.99,,---,-99.99,VWS V14.01,2013-10-05 23:51:00,
2013-10-05 16:56:00,81.9,36.9,-100.00,North,-999,-999.0,-999.0,20,-99.99,,---,-99.99,VWS V14.01,2013-10-05 23:56:00,
2013-10-05 17:01:00,81.7,36.8,-100.00,North,-999,-999.0,-999.0,20,-99.99,,---,-99.99,VWS V14.01,2013-10-06 00:01:00,
2013-10-05 17:06:00,81.5,36.6,-100.00,North,-999,-999.0,-999.0,20,-99.99,,---,-99.99,VWS V14.01,2013-10-06 00:06:00,
2013-10-05 17:11:00,81.3,36.5,-100.00,North,-999,-999.0,-999.0,20,-99.99,,---,-99.99,VWS V14.01,2013-10-06 00:11:00,
2013-10-05 17:16:00,81.1,36.3,-100.00,North,-999,-999.0,-999.0,20,-99.99,,---,-99.99,VWS V14.01,2013-10-06 00:16:00,
2013-10-05 17:21:00,81.1,36.3,-100.00,North,-999,-999.0,-999.0,20,-99.99,,---,-99.99,VWS V14.01,2013-10-06 00:21:00,
2013-10-05 17:26:00,81.0,36.2,-100.00,North,-999,-999.0,-999.0,20,-99.99,,---,-99.99,VWS V14.01,2013-10-06 00:26:00,
2013-10-05 17:32:00,80.8,36.0,-100.00,North,-999,-999.0,-999.0,20,-99.99,,---,-99.99,VWS V14.01,2013-10-06 00:32:00,
2013-10-05 17:37:00,80.6,35.9,-100.00,North,-999,-999.0,-999.0,20,-99.99,,---,-99.99,VWS V14.01,2013-10-06 00:37:00,
2013-10-05 17:42:00,80.4,35.7,-100.00,North,-999,-999.0,-999.0,20,-99.99,,---,-99.99,VWS V14.01,2013-10-06 00:42:00,
2013-10-05 17:47:00,80.2,35.6,-100.00,North,-999,-999.0,-999.0,20,-99.99,,---,-99.99,VWS V14.01,2013-10-06 00:47:00,
2013-10-05 17:52:00,80.1,35.4,-100.00,North,-999,-999.0,-999.0,20,-99.99,,---,-99.99,VWS V14.01,2013-10-06 00:52:00,
2013-10-05 17:57:00,79.9,35.3,-100.00,North,-999,-999.0,-999.0,20,-99.99,,---,-99.99,VWS V14.01,2013-10-06 00:57:00,
2013-10-05 18:02:00,79.7,35.1,-100.00,North,-999,-999.0,-999.0,20,-99.99,,---,-99.99,VWS V14.01,2013-10-06 01:02:00,
2013-10-05 18:07:00,79.5,35.0,-100.00,North,-999,-999.0,-999.0,20,-99.99,,---,-99.99,VWS V14.01,2013-10-06 01:07:00,
2013-10-05 18:12:00,79.3,34.8,-100.00,North,-999,-999.0,-999.0,20,-99.99,,---,-99.99,VWS V14.01,2013-10-06 01:12:00,
2013-10-05 18:17:00,79.2,34.7,-100.00,North,-999,-999.0,-999.0,20,-99.99,,---,-99.99,VWS V14.01,2013-10-06 01:17:00,
2013-10-05 18:22:00,78.8,34.4,-100.00,North,-999,-999.0,-999.0,20,-99.99,,---,-99.99,VWS V14.01,2013-10-06 01:22:00,
2013-10-05 18:27:00,78.6,35.5,-100.00,North,-999,-999.0,-999.0,21,-99.99,,---,-99.99,VWS V14.01,2013-10-06 01:27:00,
2013-10-05 18:32:00,78.4,35.3,-100.00,North,-999,-999.0,-999.0,21,-99.99,,---,-99.99,VWS V14.01,2013-10-06 01:32:00,
2013-10-05 18:37:00,78.1,35.0,-100.00,North,-999,-999.0,-999.0,21,-99.99,,---,-99.99,VWS V14.01,2013-10-06 01:37:00,
2013-10-05 18:42:00,77.9,34.9,-100.00,North,-999,-999.0,-999.0,21,-99.99,,---,-99.99,VWS V14.01,2013-10-06 01:42:00,
2013-10-05 18:47:00,77.5,34.6,-100.00,North,-999,-999.0,-999.0,21,-99.99,,---,-99.99,VWS V14.01,2013-10-06 01:47:00,
2013-10-05 18:52:00,77.4,34.4,-100.00,North,-999,-999.0,-999.0,21,-99.99,,---,-99.99,VWS V14.01,2013-10-06 01:52:00,
2013-10-05 18:57:00,77.2,34.3,-100.00,North,-999,-999.0,-999.0,21,-99.99,,---,-99.99,VWS V14.01,2013-10-06 01:57:00,
2013-10-05 19:02:00,76.8,34.0,-100.00,North,-999,-999.0,-999.0,21,-99.99,,---,-99.99,VWS V14.01,2013-10-06 02:02:00,
2013-10-05 19:07:00,76.6,33.8,-100.00,North,-999,-999.0,-999.0,21,-99.99,,---,-99.99,VWS V14.01,2013-10-06 02:07:00,
2013-10-05 19:12:00,76.5,33.7,-100.00,North,-999,-999.0,-999.0,21,-99.99,,---,-99.99,VWS V14.01,2013-10-06 02:12:00,
2013-10-05 19:17:00,76.1,33.4,-100.00,North,-999,-999.0,-999.0,21,-99.99,,---,-99.99,VWS V14.01,2013-10-06 02:17:00,
2013-10-05 19:22:00,76.1,33.4,-100.00,North,-999,-999.0,-999.0,21,-99.99,,---,-99.99,VWS V14.01,2013-10-06 02:22:00,
2013-10-05 19:27:00,75.9,33.2,-100.00,North,-999,-999.0,-999.0,21,-99.99,,---,-99.99,VWS V14.01,2013-10-06 02:27:00,
2013-10-05 19:32:00,75.7,33.1,-100.00,North,-999,-999.0,-999.0,21,-99.99,,---,-99.99,VWS V14.01,2013-10-06 02:32:00,
2013-10-05 19:37:00,75.6,32.9,-100.00,North,-999,-999.0,-999.0,21,-99.99,,---,-99.99,VWS V14.01,2013-10-06 02:37:00,
2013-10-05 19:42:00,75.6,32.9,-100.00,North,-999,-999.0,-999.0,21,-99.99,,---,-99.99,VWS V14.01,2013-10-06 02:42:00,
2013-10-05 19:47:00,75.2,32.6,-100.00,North,-999,-999.0,-999.0,21,-99.99,,---,-99.99,VWS V14.01,2013-10-06 02:47:00,
2013-10-05 19:52:00,75.0,32.5,-100.00,North,-999,-999.0,-999.0,21,-99.99,,---,-99.99,VWS V14.01,2013-10-06 02:52:00,
2013-10-05 19:57:00,74.8,32.3,-100.00,North,-999,-999.0,-999.0,21,-99.99,,---,-99.99,VWS V14.01,2013-10-06 02:57:00,
2013-10-05 20:02:00,74.3,31.9,-100.00,North,-999,-999.0,-999.0,21,-99.99,,---,-99.99,VWS V14.01,2013-10-06 03:02:00,
2013-10-05 20:07:00,74.1,31.7,-100.00,North,-999,-999.0,-999.0,21,-99.99,,---,-99.99,VWS V14.01,2013-10-06 03:07:00,
2013-10-05 20:12:00,73.9,31.6,-100.00,North,-999,-999.0,-999.0,21,-99.99,,---,-99.99,VWS V14.01,2013-10-06 03:12:00,
2013-10-05 20:17:00,73.8,31.4,-100.00,North,-999,-999.0,-999.0,21,-99.99,,---,-99.99,VWS V14.01,2013-10-06 03:17:00,
2013-10-05 20:22:00,73.6,31.3,-100.00,North,-999,-999.0,-999.0,21,-99.99,,---,-99.99,VWS V14.01,2013-10-06 03:22:00,
2013-10-05 20:27:00,73.4,31.1,-100.00,North,-999,-999.0,-999.0,21,-99.99,,---,-99.99,VWS V14.01,2013-10-06 03:27:00,
2013-10-05 20:32:00,73.2,32.1,-100.00,North,-999,-999.0,-999.0,22,-99.99,,---,-99.99,VWS V14.01,2013-10-06 03:32:00,
2013-10-05 20:37:00,73.0,32.0,-100.00,North,-999,-999.0,-999.0,22,-99.99,,---,-99.99,VWS V14.01,2013-10-06 03:37:00,
2013-10-05 20:42:00,72.9,31.8,-100.00,North,-999,-999.0,-999.0,22,-99.99,,---,-99.99,VWS V14.01,2013-10-06 03:42:00,
2013-10-05 20:47:00,72.7,31.7,-100.00,North,-999,-999.0,-999.0,22,-99.99,,---,-99.99,VWS V14.01,2013-10-06 03:47:00,
2013-10-05 20:52:00,72.5,31.5,-100.00,North,-999,-999.0,-999.0,22,-99.99,,---,-99.99,VWS V14.01,2013-10-06 03:52:00,
2013-10-05 20:57:00,72.1,31.2,-100.00,North,-999,-999.0,-999.0,22,-99.99,,---,-99.99,VWS V14.01,2013-10-06 03:57:00,
2013-10-05 21:02:00,72.1,31.2,-100.00,North,-999,-999.0,-999.0,22,-99.99,,---,-99.99,VWS V14.01,2013-10-06 04:02:00,
2013-10-05 21:11:00,71.6,30.8,-100.00,North,-999,-999.0,-999.0,22,-99.99,,---,-99.99,VWS V14.01,2013-10-06 04:11:00,
2013-10-05 21:12:00,71.6,30.8,-100.00,North,-999,-999.0,-999.0,22,-99.99,,---,-99.99,VWS V14.01,2013-10-06 04:12:00,
2013-10-05 21:13:00,71.6,30.8,-100.00,North,-999,-999.0,-999.0,22,-99.99,,---,-99.99,VWS V14.01,2013-10-06 04:13:00,
2013-10-05 21:15:00,71.6,30.8,-100.00,North,-999,-999.0,-999.0,22,-99.99,,---,-99.99,VWS V14.01,2013-10-06 04:15:00,
2013-10-05 21:21:00,71.8,30.9,-100.00,North,-999,-999.0,-999.0,22,-99.99,,---,-99.99,VWS V14.01,2013-10-06 04:21:00,
2013-10-05 21:26:00,71.6,30.8,-100.00,North,-999,-999.0,-999.0,22,-99.99,,---,-99.99,VWS V14.01,2013-10-06 04:26:00,
2013-10-05 21:31:00,71.1,31.4,-100.00,North,-999,-999.0,-999.0,23,-99.99,,---,-99.99,VWS V14.01,2013-10-06 04:31:00,
2013-10-05 21:36:00,70.5,31.0,-100.00,North,-999,-999.0,-999.0,23,-99.99,,---,-99.99,VWS V14.01,2013-10-06 04:36:00,
2013-10-05 21:41:00,70.0,30.5,-100.00,North,-999,-999.0,-999.0,23,-99.99,,---,-99.99,VWS V14.01,2013-10-06 04:41:00,
2013-10-05 21:46:00,69.8,30.4,-100.00,North,-999,-999.0,-999.0,23,-99.99,,---,-99.99,VWS V14.01,2013-10-06 04:46:00,
2013-10-05 21:52:00,69.4,30.1,-100.00,North,-999,-999.0,-999.0,23,-99.99,,---,-99.99,VWS V14.01,2013-10-06 04:52:00,
2013-10-05 21:57:00,69.3,29.9,-100.00,North,-999,-999.0,-999.0,23,-99.99,,---,-99.99,VWS V14.01,2013-10-06 04:57:00,
2013-10-05 22:02:00,68.9,29.6,-100.00,North,-999,-999.0,-999.0,23,-99.99,,---,-99.99,VWS V14.01,2013-10-06 05:02:00,
2013-10-05 22:07:00,68.5,29.3,-100.00,North,-999,-999.0,-999.0,23,-99.99,,---,-99.99,VWS V14.01,2013-10-06 05:07:00,
2013-10-05 22:12:00,68.4,29.1,-100.00,North,-999,-999.0,-999.0,23,-99.99,,---,-99.99,VWS V14.01,2013-10-06 05:12:00,
2013-10-05 22:17:00,68.2,29.0,-100.00,North,-999,-999.0,-999.0,23,-99.99,,---,-99.99,VWS V14.01,2013-10-06 05:17:00,
2013-10-05 22:22:00,68.0,28.9,-100.00,North,-999,-999.0,-999.0,23,-99.99,,---,-99.99,VWS V14.01,2013-10-06 05:22:00,
2013-10-05 22:27:00,67.8,28.7,-100.00,North,-999,-999.0,-999.0,23,-99.99,,---,-99.99,VWS V14.01,2013-10-06 05:27:00,
2013-10-05 22:32:00,67.8,28.7,-100.00,North,-999,-999.0,-999.0,23,-99.99,,---,-99.99,VWS V14.01,2013-10-06 05:32:00,
2013-10-05 22:37:00,67.8,28.7,-100.00,North,-999,-999.0,-999.0,23,-99.99,,---,-99.99,VWS V14.01,2013-10-06 05:37:00,
2013-10-05 22:42:00,67.6,28.5,-100.00,North,-999,-999.0,-999.0,23,-99.99,,---,-99.99,VWS V14.01,2013-10-06 05:42:00,
2013-10-05 22:47:00,67.5,29.4,-100.00,North,-999,-999.0,-999.0,24,-99.99,,---,-99.99,VWS V14.01,2013-10-06 05:47:00,
2013-10-05 22:52:00,67.3,29.3,-100.00,North,-999,-999.0,-999.0,24,-99.99,,---,-99.99,VWS V14.01,2013-10-06 05:52:00,
2013-10-05 22:57:00,67.1,29.1,-100.00,North,-999,-999.0,-999.0,24,-99.99,,---,-99.99,VWS V14.01,2013-10-06 05:57:00,
2013-10-05 23:02:00,66.7,28.8,-100.00,North,-999,-999.0,-999.0,24,-99.99,,---,-99.99,VWS V14.01,2013-10-06 06:02:00,
2013-10-05 23:07:00,66.6,28.7,-100.00,North,-999,-999.0,-999.0,24,-99.99,,---,-99.99,VWS V14.01,2013-10-06 06:07:00,
2013-10-05 23:12:00,66.4,28.5,-100.00,North,-999,-999.0,-999.0,24,-99.99,,---,-99.99,VWS V14.01,2013-10-06 06:12:00,
2013-10-05 23:17:00,66.4,28.5,-100.00,North,-999,-999.0,-999.0,24,-99.99,,---,-99.99,VWS V14.01,2013-10-06 06:17:00,
2013-10-05 23:22:00,66.0,28.2,-100.00,North,-999,-999.0,-999.0,24,-99.99,,---,-99.99,VWS V14.01,2013-10-06 06:22:00,
2013-10-05 23:27:00,65.8,28.1,-100.00,North,-999,-999.0,-999.0,24,-99.99,,---,-99.99,VWS V14.01,2013-10-06 06:27:00,
2013-10-05 23:32:00,65.7,27.9,-100.00,North,-999,-999.0,-999.0,24,-99.99,,---,-99.99,VWS V14.01,2013-10-06 06:32:00,
2013-10-05 23:37:00,65.5,27.8,-100.00,North,-999,-999.0,-999.0,24,-99.99,,---,-99.99,VWS V14.01,2013-10-06 06:37:00,
2013-10-05 23:42:00,65.3,27.6,-100.00,North,-999,-999.0,-999.0,24,-99.99,,---,-99.99,VWS V14.01,2013-10-06 06:42:00,
2013-10-05 23:47:00,65.1,27.5,-100.00,North,-999,-999.0,-999.0,24,-99.99,,---,-99.99,VWS V14.01,2013-10-06 06:47:00,
2013-10-05 23:52:00,65.1,27.5,-100.00,North,-999,-999.0,-999.0,24,-99.99,,---,-99.99,VWS V14.01,2013-10-06 06:52:00,
2013-10-05 23:57:00,64.9,27.3,-100.00,North,-999,-999.0,-999.0,24,-99.99,,---,-99.99,VWS V14.01,2013-10-06 06:57:00,